Location: El Álamo
(40.2307°N, 3.9945°W)
Time: 04:49:53
(UTC+00:00)

ARIANE 5 R/B - Pass Details

Date: 19 May 2025
Orbit: 615 x 647 km, 98.0° (Epoch: 20 June)

Event Time Altitude Azimuth Distance (km) Brightness Sun altitude
Exits shadow 23:01:15 43° 31° (NNE) 880 3.5 -27.5°
Drops below altitude 10° 23:04:31 10° 358° (N) 1,997 6.1 -27.7°
Sets 23:06:46 0° 353° (N) 2,913 7.2 -27.9°
